Location: *
(35.2348°S, 91.3916°E)
Time: 18:20:17
(UTC+00:00)

Cosmos 1833 Rocket - Pass Details

Date: 23 October 2019
Orbit: 833 x 839 km, 71.0° (Epoch: 12 November)

Event Time Altitude Azimuth Distance (km) Brightness Sun altitude
Rises 13:54:20 0° 346° (NNW) 3,377 5.7 -19.4°
Reaches altitude 10° 13:56:45 10° 348° (NNW) 2,451 4.9 -19.8°
Maximum altitude 14:02:22 74° 71° (ENE) 884 2.6 -20.8°
Drops below altitude 10° 14:08:03 10° 155° (SSE) 2,482 5.2 -21.8°
Sets 14:10:31 0° 156° (SSE) 3,423 6.0 -22.2°
